• En España
  • Lista de países
  • Para 7 días
  • Temperatura del agua
  • Mapa Satelital
  • El tiempo en el mapa
  • Informadores
  • user-avatar
    Iniciar sesión

    Tiempo cada hora Portyanur

    Hoy, 21 Octubre, Domingo

    Tiempo Temperatura Precipitaciones Viento Presión Humedad
    00:00 +3°C° 0 mm 2 mps 750 mmHg 94%
    01:00 +2°C° 0 mm 2 mps 751 mmHg 95%
    02:00 +2°C° 0 mm 2 mps 751 mmHg 95%
    03:00 +2°C° 0 mm 2 mps 752 mmHg 96%
    04:00 +1°C° 0 mm 2 mps 752 mmHg 96%
    05:00 +1°C° 0 mm 2 mps 753 mmHg 96%
    06:00 +1°C° 0 mm 2 mps 753 mmHg 96%
    07:00 +1°C° 0 mm 2 mps 753 mmHg 91%
    08:00 +2°C° 0 mm 2 mps 754 mmHg 87%
    09:00 +3°C° 0 mm 2 mps 754 mmHg 82%
    10:00 +4°C° 0 mm 2 mps 755 mmHg 76%
    11:00 +5°C° 0 mm 2 mps 755 mmHg 70%
    12:00 +5°C° 0 mm 2 mps 755 mmHg 64%
    13:00 +5°C° 0 mm 2 mps 756 mmHg 64%
    14:00 +5°C° 0 mm 2 mps 756 mmHg 64%
    15:00 +5°C° 0 mm 2 mps 756 mmHg 64%
    16:00 +5°C° 0 mm 1 mps 756 mmHg 69%
    17:00 +4°C° 0 mm 1 mps 756 mmHg 74%
    18:00 +3°C° 0 mm 1 mps 756 mmHg 79%
    19:00 +3°C° 0 mm 1 mps 757 mmHg 80%
    20:00 +3°C° 0 mm 1 mps 757 mmHg 82%
    21:00 +2°C° 0 mm 1 mps 757 mmHg 83%
    22:00 +2°C° 0 mm 1 mps 757 mmHg 85%
    23:00 +2°C° 0 mm 1 mps 757 mmHg 86%

    Mañana, 22 Octubre, Lunes

    Tiempo Temperatura Precipitaciones Viento Presión Humedad
    00:00 +2°C° 0 mm 1 mps 757 mmHg 87%
    01:00 +1°C° 0 mm 1 mps 758 mmHg 88%
    02:00 +1°C° 0 mm 1 mps 758 mmHg 88%
    03:00 +1°C° 0 mm 1 mps 758 mmHg 88%
    04:00 +1°C° 0 mm 1 mps 758 mmHg 88%
    05:00 +1°C° 0 mm 1 mps 757 mmHg 88%
    06:00 -1°C° 0 mm 2 mps 757 mmHg 88%
    07:00 +1°C° 0 mm 2 mps 757 mmHg 84%
    08:00 +1°C° 0 mm 3 mps 757 mmHg 79%
    09:00 +2°C° 0 mm 3 mps 757 mmHg 74%
    10:00 +3°C° 0 mm 4 mps 756 mmHg 72%
    11:00 +4°C° 0 mm 4 mps 756 mmHg 69%
    12:00 +6°C° 0 mm 4 mps 756 mmHg 66%
    13:00 +5°C° 0 mm 4 mps 755 mmHg 67%
    14:00 +5°C° 0 mm 4 mps 755 mmHg 68%
    15:00 +5°C° 0 mm 4 mps 754 mmHg 70%
    16:00 +5°C° 0 mm 5 mps 754 mmHg 73%
    17:00 +3°C° 0 mm 5 mps 753 mmHg 77%
    18:00 +2°C° 0 mm 5 mps 753 mmHg 81%
    19:00 +2°C° 0 mm 5 mps 752 mmHg 82%
    20:00 +2°C° 0 mm 5 mps 752 mmHg 83%
    21:00 +2°C° 0 mm 6 mps 751 mmHg 83%
    22:00 +2°C° 0 mm 6 mps 751 mmHg 83%
    23:00 +2°C° 0 mm 6 mps 750 mmHg 83%

    Pasado mañana, 23 Octubre, Martes

    Tiempo Temperatura Precipitaciones Viento Presión Humedad
    00:00 +2°C° 0 mm 6 mps 750 mmHg 82%
    01:00 +2°C° 0 mm 5 mps 750 mmHg 85%
    02:00 +2°C° 0 mm 5 mps 749 mmHg 87%
    03:00 +2°C° 0 mm 5 mps 749 mmHg 89%
    04:00 +2°C° 0 mm 5 mps 749 mmHg 90%
    05:00 +2°C° 0 mm 5 mps 748 mmHg 92%
    06:00 +2°C° 0 mm 5 mps 748 mmHg 93%
    07:00 +3°C° 0 mm 6 mps 747 mmHg 91%
    08:00 +4°C° 0 mm 6 mps 747 mmHg 90%
    09:00 +5°C° 0 mm 6 mps 747 mmHg 88%
    10:00 +5°C° 0.1 mm 6 mps 746 mmHg 84%
    11:00 +7°C° 0.1 mm 6 mps 746 mmHg 81%
    12:00 +7°C° 0.1 mm 6 mps 745 mmHg 77%
    13:00 +8°C° 0.1 mm 6 mps 745 mmHg 74%
    14:00 +8°C° 0.1 mm 6 mps 744 mmHg 71%
    15:00 +8°C° 0.1 mm 6 mps 744 mmHg 67%
    16:00 +8°C° 0.5 mm 6 mps 743 mmHg 72%
    17:00 +7°C° 0.5 mm 6 mps 743 mmHg 78%
    18:00 +6°C° 0.5 mm 7 mps 742 mmHg 83%
    19:00 +7°C° 0.2 mm 6 mps 741 mmHg 83%
    20:00 +7°C° 0.2 mm 6 mps 741 mmHg 84%
    21:00 +7°C° 0.2 mm 6 mps 740 mmHg 84%
    22:00 +7°C° 0.3 mm 6 mps 739 mmHg 85%
    23:00 +7°C° 0.3 mm 6 mps 739 mmHg 86%

    24 Octubre, Miércoles

    Tiempo Temperatura Precipitaciones Viento Presión Humedad
    00:00 +7°C° 0.3 mm 6 mps 738 mmHg 86%
    01:00 +7°C° 0.3 mm 6 mps 738 mmHg 87%
    02:00 +7°C° 0.3 mm 5 mps 738 mmHg 87%
    03:00 +7°C° 0.3 mm 5 mps 737 mmHg 88%
    04:00 +7°C° 0.1 mm 5 mps 738 mmHg 88%
    05:00 +7°C° 0.1 mm 5 mps 738 mmHg 89%
    06:00 +7°C° 0.1 mm 4 mps 738 mmHg 90%
    07:00 +7°C° 0 mm 4 mps 738 mmHg 87%
    08:00 +6°C° 0 mm 4 mps 738 mmHg 85%
    09:00 +6°C° 0 mm 4 mps 738 mmHg 82%
    10:00 +7°C° 0 mm 4 mps 739 mmHg 78%
    11:00 +7°C° 0 mm 4 mps 739 mmHg 74%
    12:00 +8°C° 0 mm 4 mps 739 mmHg 70%
    13:00 +8°C° 0 mm 4 mps 739 mmHg 70%
    14:00 +9°C° 0 mm 3 mps 739 mmHg 70%
    15:00 +9°C° 0 mm 3 mps 739 mmHg 70%
    16:00 +8°C° 0 mm 3 mps 739 mmHg 74%
    17:00 +7°C° 0 mm 3 mps 739 mmHg 79%
    18:00 +5°C° 0 mm 3 mps 739 mmHg 83%
    19:00 +5°C° 0 mm 3 mps 739 mmHg 84%
    20:00 +5°C° 0 mm 3 mps 739 mmHg 84%
    21:00 +5°C° 0 mm 3 mps 739 mmHg 84%
    22:00 +6°C° 0 mm 4 mps 739 mmHg 85%
    23:00 +6°C° 0 mm 4 mps 739 mmHg 85%

    25 Octubre, Jueves

    Tiempo Temperatura Precipitaciones Viento Presión Humedad
    00:00 +6°C° 0 mm 4 mps 739 mmHg 86%
    01:00 +6°C° 0 mm 4 mps 739 mmHg 86%
    02:00 +6°C° 0 mm 4 mps 738 mmHg 86%
    03:00 +6°C° 0 mm 5 mps 738 mmHg 87%
    04:00 +6°C° 0 mm 5 mps 738 mmHg 89%
    05:00 +6°C° 0 mm 5 mps 737 mmHg 91%
    06:00 +6°C° 0 mm 5 mps 737 mmHg 93%
    07:00 +7°C° 0.2 mm 6 mps 737 mmHg 92%
    08:00 +8°C° 0.2 mm 7 mps 736 mmHg 91%
    09:00 +8°C° 0.2 mm 7 mps 736 mmHg 90%
    10:00 +9°C° 1.9 mm 7 mps 736 mmHg 90%
    11:00 +9°C° 1.9 mm 7 mps 735 mmHg 90%
    12:00 +9°C° 1.9 mm 7 mps 735 mmHg 91%
    13:00 +9°C° 1.2 mm 7 mps 734 mmHg 88%
    14:00 +9°C° 1.2 mm 7 mps 734 mmHg 85%
    15:00 +8°C° 1.2 mm 7 mps 734 mmHg 82%
    16:00 +8°C° 0.6 mm 6 mps 734 mmHg 83%
    17:00 +9°C° 0.6 mm 6 mps 734 mmHg 85%
    18:00 +9°C° 0.6 mm 6 mps 734 mmHg 86%
    19:00 +9°C° 0.9 mm 5 mps 734 mmHg 86%
    20:00 +8°C° 0.9 mm 5 mps 733 mmHg 86%
    21:00 +8°C° 0.9 mm 5 mps 733 mmHg 87%
    22:00 +8°C° 0.9 mm 5 mps 733 mmHg 87%
    23:00 +8°C° 0.9 mm 5 mps 733 mmHg 87%

    26 Octubre, Viernes

    Tiempo Temperatura Precipitaciones Viento Presión Humedad
    00:00 +8°C° 0.9 mm 5 mps 733 mmHg 87%
    01:00 +8°C° 0.8 mm 5 mps 733 mmHg 89%
    02:00 +8°C° 0.8 mm 5 mps 733 mmHg 90%
    03:00 +8°C° 0.8 mm 5 mps 733 mmHg 92%
    04:00 +8°C° 0.7 mm 4 mps 733 mmHg 92%
    05:00 +7°C° 0.7 mm 4 mps 733 mmHg 91%
    06:00 +7°C° 0.7 mm 4 mps 734 mmHg 91%
    07:00 +6°C° 0.4 mm 4 mps 734 mmHg 88%
    08:00 +7°C° 0.4 mm 3 mps 735 mmHg 85%
    09:00 +7°C° 0.4 mm 3 mps 735 mmHg 82%
    10:00 +7°C° 0.1 mm 3 mps 735 mmHg 78%
    11:00 +7°C° 0.1 mm 3 mps 735 mmHg 75%
    12:00 +7°C° 0.1 mm 3 mps 736 mmHg 71%
    13:00 +7°C° 0 mm 3 mps 736 mmHg 71%
    14:00 +7°C° 0 mm 3 mps 736 mmHg 71%
    15:00 +7°C° 0 mm 3 mps 736 mmHg 72%
    16:00 +5°C° 0 mm 3 mps 737 mmHg 75%
    17:00 +5°C° 0 mm 2 mps 737 mmHg 79%
    18:00 +5°C° 0 mm 2 mps 737 mmHg 83%
    19:00 +4°C° 0 mm 2 mps 737 mmHg 84%
    20:00 +4°C° 0 mm 2 mps 737 mmHg 85%
    21:00 +4°C° 0 mm 2 mps 737 mmHg 87%
    22:00 +4°C° 0 mm 2 mps 738 mmHg 88%
    23:00 +4°C° 0 mm 2 mps 738 mmHg 89%
    Mostrar más